Meridian, MS

12:53 AM CST on November 20, 2019 (GMT -0600)
Key

Weather History for KMEI - September, 2019

Change the Weather History Date:

Sunday, September 8, 2019

  Actual Average Record
Temperature  
Mean Temperature 86 °F 77 °F  
Max Temperature 100 °F 89 °F 101 °F (1980)
Min Temperature 73 °F 66 °F 51 °F (1896)
Degree Days  
Heating Degree Days 0 0  
Month to date heating degree days 0 0  
Since 1 July heating degree days 0 0  
Cooling Degree Days 22 12  
Month to date cooling degree days 150 105  
Year to date cooling degree days 2233 1725  
Growing Degree Days 36 (Base 50)    
Moisture  
Dew Point 73 °F    
Average Humidity 69    
Maximum Humidity 94    
Minimum Humidity 39    
Precipitation  
Precipitation 0.00 in 0.11 in 2.76 in (1893)
Month to date precipitation 0.00 0.91  
Year to date precipitation 42.95 39.87  
Sea Level Pressure  
Sea Level Pressure 29.98 in    
Wind  
Wind Speed 2 mph ()    
Max Wind Speed 13 mph    
Max Gust Speed 15 mph    
Visibility 9.0 miles    
Events      
T = Trace of Precipitation, MM = Missing Value Source: Averaged Metar Reports

Daily Weather History Graph

Daily Weather History Graph

Search for Another Location

Airport or City:

Astronomy

Sep. 08, 2019 Rise Set
Actual Time 6:34 AM CDT 7:10 PM CDT
Civil Twilight 6:09 AM CDT 7:35 PM CDT
Nautical Twilight 5:40 AM CDT 8:04 PM CDT
Astronomical Twilight 5:10 AM CDT 8:33 PM CDT
Moon 4:02 PM CDT (9/8) 1:30 AM CDT (9/8)
Length of Visible Light 13h 25m
Length of Day
12h 36m
Waxing Gibbous, 75% of the Moon is Illuminated
Sep 8
Waxing Gibbous
Sep 13
Full
Sep 21
Last Quarter
Sep 28
New
Oct 5
First Quarter

Hourly Weather History & Observations

Time (CDT) Temp. Heat Index Dew Point Humidity Pressure Visibility Wind Dir Wind Speed Gust Speed Precip Events Conditions
12:58 AM 75.9 °F - 73.0 °F 91% 29.96 in 8.0 mi Calm Calm - N/A   Clear
1:58 AM 75.9 °F - 73.0 °F 91% 29.96 in 8.0 mi SSW 3.5 mph - N/A   Clear
2:58 AM 75.0 °F - 72.0 °F 90% 29.95 in 7.0 mi Calm Calm - N/A   Clear
3:58 AM 75.0 °F - 72.0 °F 90% 29.95 in 7.0 mi Calm Calm - N/A   Clear
4:58 AM 73.9 °F - 71.1 °F 91% 29.96 in 7.0 mi Calm Calm - N/A   Clear
5:58 AM 73.9 °F - 71.1 °F 91% 29.98 in 7.0 mi Calm Calm - N/A   Clear
6:58 AM 73.9 °F - 71.1 °F 91% 30.00 in 7.0 mi Calm Calm - N/A   Clear
7:58 AM 78.1 °F - 73.0 °F 84% 30.01 in 7.0 mi Calm Calm - N/A   Clear
8:58 AM 84.0 °F 91.9 °F 75.0 °F 74% 30.01 in 9.0 mi Calm Calm - N/A   Clear
9:58 AM 88.0 °F 97.5 °F 75.0 °F 65% 30.02 in 10.0 mi Calm Calm - N/A   Clear
10:58 AM 93.0 °F 105.3 °F 75.9 °F 57% 30.01 in 10.0 mi South 4.6 mph - N/A   Clear
11:58 AM 97.0 °F 105.5 °F 72.0 °F 44% 30.00 in 10.0 mi Variable 4.6 mph - N/A   Partly Cloudy
12:58 PM 98.1 °F 105.0 °F 70.0 °F 40% 29.99 in 10.0 mi Calm Calm - N/A   Scattered Clouds
1:58 PM 98.1 °F 106.5 °F 71.1 °F 42% 29.98 in 10.0 mi North 8.1 mph - N/A   Scattered Clouds
2:58 PM 99.0 °F 108.5 °F 72.0 °F 42% 29.97 in 10.0 mi North 9.2 mph - N/A   Clear
3:58 PM 98.1 °F 107.2 °F 72.0 °F 43% 29.96 in 10.0 mi NNW 8.1 mph - N/A   Clear
4:58 PM 98.1 °F 106.5 °F 71.1 °F 42% 29.96 in 10.0 mi North 6.9 mph - N/A   Clear
5:58 PM 96.1 °F 102.9 °F 70.0 °F 43% 29.96 in 10.0 mi North 10.4 mph - N/A   Clear
6:58 PM 87.1 °F 95.4 °F 73.9 °F 65% 29.97 in 10.0 mi North 5.8 mph - N/A   Clear
7:58 PM 86.0 °F 93.8 °F 73.9 °F 67% 29.98 in 10.0 mi Variable 3.5 mph - N/A   Partly Cloudy
8:58 PM 82.9 °F 89.4 °F 73.9 °F 74% 30.00 in 10.0 mi Calm Calm - N/A   Clear
9:58 PM 80.1 °F 84.5 °F 73.9 °F 81% 30.02 in 10.0 mi Calm Calm - N/A   Clear
10:58 PM 79.0 °F - 73.0 °F 82% 30.01 in 10.0 mi Calm Calm - N/A   Clear